When you browse on this site, cookies collect data to enhance your experience and personalize the content and advertising you see.
Visit our Privacy Policy to learn more. By continuing to use the site, you agree to this use of cookies and data.
  • In Slovakia
  • List of Countries
  • For 7 days
  • Water Temperature
  • Satellite Maps
  • Weather Map
  • Weather Widgets
  • user-avatar
    Login

    Hourly Weather Uige

    Today, 14 December, Friday

    Time Temperature Precipitation Wind Pressure Humidity
    00:00 +20°C° 0.8 mm 0 mps 692 mmHg 96%
    01:00 +19°C° 0 mm 0 mps 692 mmHg 97%
    02:00 +19°C° 0.1 mm 0 mps 692 mmHg 96%
    03:00 +19°C° 0.1 mm 0 mps 692 mmHg 96%
    04:00 +19°C° 0.1 mm 0 mps 692 mmHg 95%
    05:00 +20°C° 0 mm 0 mps 693 mmHg 95%
    06:00 +20°C° 0 mm 0 mps 693 mmHg 94%
    07:00 +21°C° 0 mm 0 mps 693 mmHg 93%
    08:00 +22°C° 0.5 mm 0 mps 693 mmHg 89%
    09:00 +24°C° 0.5 mm 0 mps 693 mmHg 86%
    10:00 +25°C° 0.5 mm 0 mps 694 mmHg 82%
    11:00 +28°C° 1.6 mm 1 mps 693 mmHg 82%
    12:00 +28°C° 1.6 mm 1 mps 692 mmHg 81%
    13:00 +29°C° 1.6 mm 1 mps 692 mmHg 81%
    14:00 +28°C° 1.1 mm 1 mps 691 mmHg 82%
    15:00 +28°C° 1.1 mm 1 mps 691 mmHg 84%
    16:00 +27°C° 1.1 mm 1 mps 690 mmHg 85%
    17:00 +26°C° 0.7 mm 1 mps 691 mmHg 88%
    18:00 +24°C° 0.7 mm 1 mps 691 mmHg 92%
    19:00 +23°C° 0.7 mm 1 mps 691 mmHg 95%
    20:00 +22°C° 0.2 mm 1 mps 692 mmHg 95%
    21:00 +20°C° 0.2 mm 0 mps 692 mmHg 96%
    22:00 +19°C° 0.2 mm 0 mps 693 mmHg 97%
    23:00 +19°C° 0.3 mm 0 mps 693 mmHg 97%

    Tomorrow, 15 December, Saturday

    Time Temperature Precipitation Wind Pressure Humidity
    00:00 +19°C° 0.3 mm 0 mps 693 mmHg 98%
    01:00 +19°C° 0.3 mm 0 mps 693 mmHg 98%
    02:00 +19°C° 0.4 mm 0 mps 692 mmHg 98%
    03:00 +21°C° 0.4 mm 1 mps 692 mmHg 98%
    04:00 +21°C° 0.4 mm 1 mps 692 mmHg 99%
    05:00 +21°C° 0.1 mm 1 mps 692 mmHg 98%
    06:00 +22°C° 0.1 mm 1 mps 693 mmHg 98%
    07:00 +22°C° 0.1 mm 1 mps 693 mmHg 97%
    08:00 +23°C° 0.3 mm 1 mps 693 mmHg 92%
    09:00 +25°C° 0.3 mm 1 mps 694 mmHg 87%
    10:00 +26°C° 0.3 mm 1 mps 694 mmHg 82%
    11:00 +27°C° 0.4 mm 1 mps 694 mmHg 78%
    12:00 +28°C° 0.4 mm 2 mps 693 mmHg 74%
    13:00 +29°C° 0.4 mm 2 mps 693 mmHg 70%
    14:00 +28°C° 0.7 mm 2 mps 692 mmHg 73%
    15:00 +28°C° 0.7 mm 2 mps 692 mmHg 77%
    16:00 +27°C° 0.7 mm 1 mps 691 mmHg 80%
    17:00 +26°C° 0.6 mm 1 mps 691 mmHg 85%
    18:00 +24°C° 0.6 mm 1 mps 692 mmHg 90%
    19:00 +23°C° 0.6 mm 1 mps 692 mmHg 95%
    20:00 +23°C° 1.7 mm 1 mps 693 mmHg 96%
    21:00 +22°C° 1.7 mm 1 mps 693 mmHg 96%
    22:00 +20°C° 1.7 mm 0 mps 694 mmHg 97%
    23:00 +22°C° 1.3 mm 1 mps 693 mmHg 97%

    Day after tomorrow, 16 December, Sunday

    Time Temperature Precipitation Wind Pressure Humidity
    00:00 +22°C° 1.3 mm 1 mps 693 mmHg 97%
    01:00 +22°C° 1.3 mm 1 mps 693 mmHg 97%
    02:00 +21°C° 0.2 mm 1 mps 692 mmHg 97%
    03:00 +21°C° 0.2 mm 1 mps 692 mmHg 98%
    04:00 +21°C° 0.2 mm 1 mps 692 mmHg 98%
    05:00 +21°C° 0.1 mm 1 mps 692 mmHg 98%
    06:00 +21°C° 0.2 mm 1 mps 692 mmHg 97%
    07:00 +21°C° 0.2 mm 1 mps 693 mmHg 97%
    08:00 +22°C° 0.2 mm 1 mps 693 mmHg 95%
    09:00 +23°C° 0.2 mm 1 mps 693 mmHg 92%
    10:00 +22°C° 0.2 mm 0 mps 693 mmHg 90%
    11:00 +25°C° 0.1 mm 1 mps 693 mmHg 83%
    12:00 +26°C° 0.1 mm 1 mps 693 mmHg 75%
    13:00 +27°C° 0.1 mm 2 mps 692 mmHg 67%
    14:00 +27°C° 0.1 mm 2 mps 692 mmHg 67%
    15:00 +28°C° 0.1 mm 2 mps 691 mmHg 68%
    16:00 +28°C° 0.1 mm 2 mps 691 mmHg 68%
    17:00 +26°C° 0.1 mm 1 mps 691 mmHg 75%
    18:00 +24°C° 0.1 mm 1 mps 691 mmHg 81%
    19:00 +22°C° 0.1 mm 1 mps 692 mmHg 88%
    20:00 +20°C° 0 mm 0 mps 692 mmHg 90%
    21:00 +19°C° 0 mm 0 mps 692 mmHg 91%
    22:00 +19°C° 0 mm 0 mps 693 mmHg 93%
    23:00 +19°C° 0 mm 0 mps 692 mmHg 93%

    17 December, Monday

    Time Temperature Precipitation Wind Pressure Humidity
    00:00 +18°C° 0 mm 0 mps 692 mmHg 94%
    01:00 +20°C° 0 mm 1 mps 692 mmHg 95%
    02:00 +20°C° 0 mm 1 mps 691 mmHg 95%
    03:00 +20°C° 0 mm 1 mps 691 mmHg 95%
    04:00 +20°C° 0 mm 1 mps 691 mmHg 94%
    05:00 +21°C° 0 mm 1 mps 692 mmHg 93%
    06:00 +21°C° 0 mm 1 mps 692 mmHg 91%
    07:00 +22°C° 0 mm 1 mps 693 mmHg 90%
    08:00 +23°C° 0 mm 1 mps 693 mmHg 82%
    09:00 +25°C° 0 mm 1 mps 694 mmHg 74%
    10:00 +27°C° 0 mm 1 mps 694 mmHg 67%
    11:00 +27°C° 0.2 mm 1 mps 693 mmHg 66%
    12:00 +28°C° 0.2 mm 1 mps 693 mmHg 65%
    13:00 +29°C° 0.2 mm 1 mps 692 mmHg 64%
    14:00 +28°C° 0.6 mm 1 mps 692 mmHg 72%
    15:00 +27°C° 0.6 mm 1 mps 691 mmHg 80%
    16:00 +26°C° 0.6 mm 1 mps 691 mmHg 88%
    17:00 +25°C° 0.3 mm 1 mps 691 mmHg 90%
    18:00 +24°C° 0.3 mm 1 mps 691 mmHg 92%
    19:00 +21°C° 0.3 mm 0 mps 691 mmHg 94%
    20:00 +20°C° 0.1 mm 0 mps 692 mmHg 94%
    21:00 +20°C° 0.1 mm 0 mps 692 mmHg 95%
    22:00 +19°C° 0.1 mm 0 mps 692 mmHg 95%
    23:00 +19°C° 0 mm 0 mps 692 mmHg 95%

    18 December, Tuesday

    Time Temperature Precipitation Wind Pressure Humidity
    00:00 +19°C° 0 mm 0 mps 692 mmHg 95%
    01:00 +21°C° 0 mm 1 mps 691 mmHg 95%
    02:00 +21°C° 0 mm 1 mps 691 mmHg 95%
    03:00 +21°C° 0 mm 1 mps 691 mmHg 95%
    04:00 +21°C° 0 mm 1 mps 691 mmHg 96%
    05:00 +21°C° 0 mm 1 mps 691 mmHg 95%
    06:00 +21°C° 0 mm 1 mps 692 mmHg 95%
    07:00 +22°C° 0 mm 1 mps 692 mmHg 94%
    08:00 +24°C° 0 mm 1 mps 693 mmHg 86%
    09:00 +24°C° 0 mm 0 mps 693 mmHg 78%
    10:00 +26°C° 0 mm 0 mps 693 mmHg 70%
    11:00 +26°C° 0 mm 0 mps 693 mmHg 66%
    12:00 +27°C° 0 mm 0 mps 692 mmHg 62%
    13:00 +28°C° 0 mm 0 mps 692 mmHg 58%
    14:00 +30°C° 0 mm 1 mps 691 mmHg 60%
    15:00 +29°C° 0 mm 1 mps 691 mmHg 63%
    16:00 +29°C° 0 mm 1 mps 690 mmHg 65%
    17:00 +27°C° 0.1 mm 1 mps 690 mmHg 73%
    18:00 +25°C° 0.1 mm 1 mps 691 mmHg 81%
    19:00 +23°C° 0.1 mm 1 mps 691 mmHg 89%
    20:00 +23°C° 0.6 mm 1 mps 691 mmHg 92%
    21:00 +22°C° 0.6 mm 1 mps 692 mmHg 95%
    22:00 +22°C° 0.6 mm 1 mps 692 mmHg 98%
    23:00 +22°C° 0.7 mm 1 mps 692 mmHg 98%

    19 December, Wednesday

    Time Temperature Precipitation Wind Pressure Humidity
    00:00 +22°C° 0.7 mm 1 mps 692 mmHg 98%
    01:00 +21°C° 0.7 mm 1 mps 691 mmHg 99%
    02:00 +21°C° 0.1 mm 1 mps 691 mmHg 99%
    03:00 +21°C° 0.1 mm 1 mps 691 mmHg 99%
    04:00 +21°C° 0.1 mm 1 mps 691 mmHg 99%
    05:00 +22°C° 0 mm 1 mps 691 mmHg 98%
    06:00 +22°C° 0 mm 1 mps 692 mmHg 97%
    07:00 +22°C° 0 mm 1 mps 692 mmHg 97%
    08:00 +24°C° 0.1 mm 1 mps 693 mmHg 88%
    09:00 +26°C° 0.1 mm 1 mps 693 mmHg 79%
    10:00 +27°C° 0.1 mm 1 mps 693 mmHg 70%
    11:00 +28°C° 0.4 mm 1 mps 693 mmHg 66%
    12:00 +29°C° 0.4 mm 1 mps 692 mmHg 62%
    13:00 +30°C° 0.4 mm 1 mps 691 mmHg 58%
    14:00 +29°C° 0.8 mm 2 mps 691 mmHg 65%
    15:00 +29°C° 0.8 mm 2 mps 690 mmHg 71%
    16:00 +28°C° 0.8 mm 2 mps 690 mmHg 77%
    17:00 +26°C° 0.6 mm 2 mps 690 mmHg 83%
    18:00 +24°C° 0.6 mm 1 mps 690 mmHg 89%
    19:00 +22°C° 0.6 mm 1 mps 691 mmHg 95%
    20:00 +22°C° 0 mm 1 mps 691 mmHg 96%
    21:00 +22°C° 0 mm 1 mps 691 mmHg 97%
    22:00 +21°C° 0 mm 1 mps 692 mmHg 98%
    23:00 +21°C° 0.3 mm 1 mps 691 mmHg 98%
    Show more